Location: Clatteringshaws Loch
(55.0508°N, 4.2860°W)
Time: 16:29:37
(UTC+00:00)

ALOS - Visible Passes

Search period start: 22 February 2018 00:00
Search period end: 04 March 2018 00:00
Orbit: 685 x 686 km, 97.8° (Epoch: 21 February)

Date Brightness Start Highest point End Pass type
(mag) Time Alt. Az. Time Alt. Az. Time Alt. Az.
22 Feb 5.9 05:47:12 10° ENE 05:48:36 11° E 05:50:00 10° E visible
22 Feb 3.0 18:32:54 10° S 18:37:31 60° W 18:42:11 10° NNW visible
22 Feb 5.9 20:15:25 10° W 20:15:58 10° W 20:16:32 10° WNW visible
23 Feb 5.2 06:22:54 10° NE 06:26:33 22° E 06:30:13 10° SE visible
23 Feb 4.4 19:11:04 10° SSW 19:15:11 30° W 19:19:20 10° NNW visible
24 Feb 2.3 18:10:13 10° SSE 18:14:54 89° W 18:19:37 10° NNW visible
24 Feb 5.4 19:50:13 10° WSW 19:53:02 16° W 19:55:53 10° NW visible
25 Feb 5.6 06:01:00 10° NE 06:03:42 15° E 06:06:23 10° ESE visible
25 Feb 3.6 18:47:58 10° S 18:52:27 45° W 18:56:58 10° NNW visible
26 Feb 4.7 06:37:29 10° NNE 06:41:35 29° E 06:45:38 10° SSE visible
26 Feb 4.9 19:26:28 10° SW 19:30:11 23° W 19:33:57 10° NW visible
27 Feb 2.7 18:25:07 10° S 18:29:47 68° WSW 18:34:29 10° NNW visible
27 Feb 5.7 20:06:26 10° WSW 20:08:08 12° W 20:09:50 10° WNW visible
28 Feb 5.4 06:15:20 10° NE 06:18:46 20° E 06:22:10 10° SE visible
28 Feb 4.2 19:03:08 10° SSW 19:07:24 34° W 19:11:41 10° NNW visible
01 Mar 5.3 19:42:03 10° SW 19:45:13 18° W 19:48:24 10° NW visible
02 Mar 5.8 05:53:39 10° NE 05:55:52 13° E 05:58:06 10° ESE visible
02 Mar 3.3 18:40:08 10° S 18:44:41 51° W 18:49:17 10° NNW visible
03 Mar 4.7 19:18:28 10° SSW 19:22:23 26° W 19:26:20 10° NW visible
